WetterOnline ( https://www.wetteronline.ch )

Wetter aktuell Ghedi

Aktuelles Wetter: Ghedi (97m)

6-stündlich | Neueste Meldungen
Ortszeit Temperatur Wetter
Fr, 13.12. 1:00 0.2° C Nebel (zunehmend)
Do, 12.12. 19:00 1.8° C wolkig
Do, 12.12. 13:00 0.2° C leichter Schneefall
Do, 12.12. 7:00 0.0° C leichter Schneeregen
Do, 12.12. 1:00 2.0° C wolkig
Mi, 11.12. 19:00 2.2° C leicht bewölkt
Mi, 11.12. 13:00 6.8° C leicht bewölkt
Mi, 11.12. 7:00 0.8° C leicht bewölkt
Ortszeit Temperatur Wetter
Fr, 13.12. 5:00 0.0° C wolkig
Fr, 13.12. 4:55 0° C leicht bewölkt
Fr, 13.12. 4:00 0.2° C leicht bewölkt
Fr, 13.12. 3:55 0° C leicht bewölkt
Fr, 13.12. 3:00 0.1° C Dunst
Fr, 13.12. 2:55 0° C Nebel, Dunst
Fr, 13.12. 2:00 0.2° C Nebel
Fr, 13.12. 1:55 0° C Nebel
Fr, 13.12. 1:00 0.2° C Nebel (zunehmend)
Ortszeit Relative Feuchte Sichtweite
Fr, 13.12. 1:00 86% 0.2 km
Do, 12.12. 19:00 84% 5.0 km
Do, 12.12. 13:00 87% 0.5 km
Do, 12.12. 7:00 89% 1.8 km
Do, 12.12. 1:00 91% 10 km
Mi, 11.12. 19:00 77% 10 km
Mi, 11.12. 13:00 51% 30 km
Mi, 11.12. 7:00 79% 10 km
Ortszeit Relative Feuchte Sichtweite
Fr, 13.12. 5:00 85% 1.6 km
Fr, 13.12. 4:55 86% 1.6 km
Fr, 13.12. 4:00 87% 1.2 km
Fr, 13.12. 3:55 86% 1.2 km
Fr, 13.12. 3:00 86% 0.4 km
Fr, 13.12. 2:55 86% 0.4 km
Fr, 13.12. 2:00 87% 0.2 km
Fr, 13.12. 1:55 86% 0.2 km
Fr, 13.12. 1:00 86% 0.2 km
Ortszeit Niederschlagsmenge Niederschlagsart
Fr, 13.12. 1:00 0.0 l/m2 in 6 Std. Nebel
Do, 12.12. 19:00 5 l/m2 in 12 Std. Schnee, Nebel
Do, 12.12. 13:00 5 l/m2 in 6 Std. Schnee, Nebel
Do, 12.12. 7:00 1 l/m2 in 12 Std. Regen
Do, 12.12. 1:00 0.0 l/m2 in 6 Std. -
Mi, 11.12. 19:00 0.0 l/m2 in 12 Std. -
Mi, 11.12. 13:00 0.0 l/m2 in 6 Std. -
Mi, 11.12. 7:00 0.0 l/m2 in 12 Std. -
Ortszeit Niederschlagsmenge Niederschlagsart
Fr, 13.12. 5:00 keine Meldung -
Fr, 13.12. 4:55 keine Meldung -
Fr, 13.12. 4:00 keine Meldung -
Fr, 13.12. 3:55 keine Meldung -
Fr, 13.12. 3:00 keine Meldung -
Fr, 13.12. 2:55 keine Meldung -
Fr, 13.12. 2:00 keine Meldung -
Fr, 13.12. 1:55 keine Meldung -
Fr, 13.12. 1:00 keine Meldung -
Ortszeit Stärke Spitze Richtung
km/h Bft. km/h Grad Sektor
Fr, 13.12. 1:00 11 2 - 50° NO
Do, 12.12. 19:00 11 2 - 290° W
Do, 12.12. 13:00 7 2 - 280° W
Do, 12.12. 7:00 4 1 - 300° NW
Do, 12.12. 1:00 6 1 - 260° W
Mi, 11.12. 19:00 2 1 - 190° S
Mi, 11.12. 13:00 6 1 - 190° S
Mi, 11.12. 7:00 6 1 - 30° NO
Ortszeit Stärke Spitze Richtung
km/h Bft. km/h Grad Sektor
Fr, 13.12. 5:00 4 1 - 210° SW
Fr, 13.12. 4:55 4 1 - 210° SW
Fr, 13.12. 4:00 4 1 - 190° S
Fr, 13.12. 3:55 4 1 - 190° S
Fr, 13.12. 3:00 6 1 - 160° S
Fr, 13.12. 2:55 6 1 - 160° S
Fr, 13.12. 2:00 11 2 - 60° NO
Fr, 13.12. 1:55 11 2 - 60° NO
Fr, 13.12. 1:00 11 2 - 50° NO
Ortszeit Untergrenze Bedeckung Gattung
total tief tief mittel hoch
Fr, 13.12. 1:00 30 m 7/8 7/8 St - -
Do, 12.12. 19:00 450 m 6/8 6/8 Sc - -
Do, 12.12. 13:00 60 m 8/8 8/8 St - -
Do, 12.12. 7:00 60 m 8/8 8/8 St - -
Do, 12.12. 1:00 1200 m 7/8 3/8 Sc As Cs
Mi, 11.12. 19:00 6000 m 5/8 5/8 - - Ci
Mi, 11.12. 13:00 6000 m 4/8 4/8 - - Ci
Mi, 11.12. 7:00 1350 m 3/8 3/8 Sc - -
Ortszeit Bedeckungsgrad in Achtel und Wolkenuntergrenze
Fr, 13.12. 5:00 3(120m) 4(600m)
Fr, 13.12. 4:55 3-4(120m) 3-4(600m)
Fr, 13.12. 4:00 2(120m) 3(450m)
Fr, 13.12. 3:55 1-2(120m) 3-4(450m)
Fr, 13.12. 3:00 2(120m) 3(450m)
Fr, 13.12. 2:55 1-2(120m) 3-4(450m)
Fr, 13.12. 2:00 3(30m) 4(120m)
Fr, 13.12. 1:55 3-4(30m) 3-4(120m)
Fr, 13.12. 1:00 3(30m) 4(120m)
Ortszeit Luftdruck NN (hPa) Tendenz (hPa in 3 Std.)
Fr, 13.12. 1:00 1002 - 1,5
Do, 12.12. 19:00 1004 - 1,6
Do, 12.12. 13:00 1007 - 0,7
Do, 12.12. 7:00 1007 - 0,2
Do, 12.12. 1:00 1009 - 1,2
Mi, 11.12. 19:00 1012 - 1,8
Mi, 11.12. 13:00 1016 - 3,0
Mi, 11.12. 7:00 1020 - 1,2
Ortszeit Luftdruck NN (hPa) Tendenz (hPa in 3 Std.)
Fr, 13.12. 5:00 997 - 3,4
Fr, 13.12. 4:55 996 keine Meldung
Fr, 13.12. 4:00 998 - 3,0
Fr, 13.12. 3:55 997 keine Meldung
Fr, 13.12. 3:00 1000 - 1,8
Fr, 13.12. 2:55 999 keine Meldung
Fr, 13.12. 2:00 1001 - 1,9
Fr, 13.12. 1:55 1000 keine Meldung
Fr, 13.12. 1:00 1002 - 1,5
Ortszeit Schneehöhe (cm)
Fr, 13.12. 1:00 -
Do, 12.12. 19:00 1
Do, 12.12. 13:00 -
Do, 12.12. 7:00 -
Do, 12.12. 1:00 -
Mi, 11.12. 19:00 -
Mi, 11.12. 13:00 -
Mi, 11.12. 7:00 0
Ortszeit Schneehöhe (cm)
Fr, 13.12. 5:00 -
Fr, 13.12. 4:55 -
Fr, 13.12. 4:00 -
Fr, 13.12. 3:55 -
Fr, 13.12. 3:00 -
Fr, 13.12. 2:55 -
Fr, 13.12. 2:00 -
Fr, 13.12. 1:55 -
Fr, 13.12. 1:00 -
Link zu dieser Seite / Seite empfehlen

Das Wetter in ...